カタログに戻る

ONEWEB-0118

運用中通信PO
NORAD 47264·PAYLOAD·🇬🇧 United Kingdom

打ち上げ Dec 18, 2020 から Vostochny Cosmodrome

Loading…

次のパス (今後24時間)

TLE

最新Source: CelesTrak SupGP

元期: Sep 14, 2026, 13:16 UTC

1 47264C 20100G   26257.55292083  .00002578  00000+0  71747-2 0  2578
2 47264  87.8981 332.9144 0001798 111.1336 358.8018 13.12434289    14

AllMySatでONEWEB-0118をリアルタイム追跡

Download on the App Store